www.pogodaiklimat.ru

ПОГОДА в Или, NV

  • Прогноз погоды в Или
  • Монитор погоды в Или
  • Климат в Или

АРХИВ ПОГОДЫ в Или

Время (UTC), дата Ветер
(напр.,м/с)
 
Видим.   Явления Облачность Т
(С)
Тd
(С)
f
(%)
Тe
(С)
Тes
(С)
Комфортность

P
(гПа)

Po
(гПа)
Тmin
(С)
Tmax
(С)
R
(мм)
SD
(см)
17:53 16.09 Ю  10
{15} 
16 км    ясно  +23.3  -7.8  12  +21  +21  комфорт  1004.9  805.3         
18:53 16.09 Ю  9
{15} 
16 км    ясно  +24.4  -8.3  11  +22  +22  комфорт  1004.3  804.7         
19:53 16.09 ЮЗ  8
{14} 
16 км    н/о  +25.6  -7.2  11  +23  +23  комфорт  1003.5  804.2         
20:53 16.09 Ю  11
{14} 
16 км    5/0 3300 м
[средняя] 
+22.8  -5.0  15  +21  +21  комфорт  1003.1  803.7         
21:53 16.09 Ю  9
{14} 
16 км    5/0 3000 м
[средняя] 
+22.2  -3.9  17  +21  +21  комфорт             
23:53 16.09 Ю  11
{16} 
16 км    5/0 3300 м
[средняя] 
+21.1  -4.4  18  +20  +20    1002.5  802.6         
00:53 17.09 Ю  7
{17} 
16 км    10/0 3300 м
[средняя] 
+19.4  -4.4  20  +19  +19    1003.0  802.9         
02:53 17.09 Ю  8
{13} 
16 км    ясно  +17.8  -1.7  26  +17  +17    1002.3  803.1         
03:43 17.09 З  7
{11} 
11 км    10/0 3000 м
[средняя] 
+15.0  -1.7  32  +13  +13      803.9         
03:51 17.09 З  7
{13} 
11 км    10/0 3000 м
[средняя] 
+16.0  -2.0  29  +14  +14      803.9         
03:53 17.09 З  6
{13} 
13 км    10/0 3000 м
[средняя] 
+15.6  -2.2  29  +14  +14    1003.5  803.9         
04:53 17.09 З  13 км    10/0 3000 м
[средняя] 
+12.2  -1.7  38  +10  +10    1005.0  804.7  +12.2  +21.7     
05:53 17.09 СЗ  6
{11} 
16 км    5/0 3300 м
[средняя] 
+10.0  -3.3  39  +7  +7    1006.4  805.6         
06:53 17.09 СЗ  16 км    ясно  +9.4  -5.0  36  +6  +6    1007.1  806.4         
07:53 17.09 СЗ  16 км    ясно  +7.8  -6.7  35  +4  +4    1007.7  806.6         
09:53 17.09 З  16 км    ясно  +4.4  -5.6  48  +1  +1    1011.1  808.0         
10:53 17.09 СЗ  16 км    ясно  +3.3  -5.6  52  +2  +2    1012.1  808.5  +2.8  +12.2     
11:53 17.09 Ю  16 км    ясно  -1.7  -8.3  61  -4  -4    1014.4  809.0         
12:53 17.09 Ю  16 км    ясно  -0.6  -7.2  61  -5  -5    1015.0  809.3         
13:53 17.09 Ю  16 км    ясно  +6.7  -3.9  47  +5  +5    1014.1  810.1         
14:53 17.09   16 км    ясно  +10.6  -5.6  32  +11  +13    1013.8  810.4         
15:53 17.09 нст  16 км    ясно  +12.8  -6.7  25  +13  +18    1014.1  810.7         
16:53 17.09 нст  16 км    ясно  +14.4  -7.2  22  +15  +24    1014.5  810.4  -2.2  +14.4     
17:53 17.09 СЗ  16 км    ясно  +16.1  -8.3  18  +16  +25    1014.1  810.1         
18:53 17.09 нст  16 км    ясно  +17.2  -10.0  15  +17  +27    1013.7  809.9         
19:53 17.09 Ю  16 км    ясно  +17.8  -10.6  13  +18  +29    1013.3  809.3         
20:53 17.09 Ю  16 км    ясно  +18.3  -10.0  14  +19  +30    1013.0  808.8         
22:53 17.09 нст  16 км    ясно  +20.0  -9.4  13  +20  +25    1012.5  808.2  +14.4  +20.0     
23:53 17.09   16 км    ясно  +18.9  -10.0  13  +19  +22    1013.8  808.2         
00:53 18.09 Ю  16 км    ясно  +12.8  -9.4  20  +12  +12    1015.3  808.2         
01:53 18.09 ЮВ  16 км    ясно  +12.8  -10.6  18  +11  +11    1013.5  808.5         
02:53 18.09 Ю  16 км    ясно  +7.8  -10.0  27  +6  +6    1014.1  808.8         
03:53 18.09 Ю  16 км    ясно  +5.6  -11.1  29  +2  +2    1014.5  808.8         
04:53 18.09 Ю  16 км    ясно  +5.0  -11.1  30  0  0    1013.9  808.8  +5.0  +20.0     
05:53 18.09 Ю  16 км    ясно  +2.8  -11.7  33  -1  -1    1013.8  808.5         
06:53 18.09 Ю  16 км    ясно  +2.2  -11.7  35  -3  -3    1013.3  808.2         
07:53 18.09 Ю  16 км    ясно  +1.7  -11.7  36  -4  -4    1012.9  808.0         
08:53 18.09   16 км    ясно  +0.6  -10.6  43  0  0    1012.9  807.7         
09:53 18.09 Ю  16 км    ясно  +1.7  -10.6  40  -0  -0    1012.2  807.7         
11:53 18.09 Ю  16 км    ясно  +1.1  -9.4  45  -3  -3    1012.2  807.4         
12:53 18.09 Ю  16 км    ясно  +0.6  -9.4  47  -5  -5    1014.4  807.7         
13:53 18.09 Ю  16 км    ясно  +9.4  -7.2  30  +8  +8    1012.3  808.0         
14:53 18.09 ЮЗ  7
{9} 
16 км    ясно  +16.7  -5.6  21  +15  +16    1011.2  807.4         
15:53 18.09 Ю  8
{12} 
16 км    ясно  +18.9  -7.2  16  +18  +18    1010.7  807.2         
16:53 18.09 Ю  16 км    ясно  +21.1  -8.3  13  +20  +22    1009.6  806.9  0.0  +21.1     
17:53 18.09 Ю  16 км    ясно  +22.2  -8.3  12  +20  +23    1009.3  806.4         
18:53 18.09 Ю  7
{10} 
16 км    ясно  +22.2  -8.3  12  +20  +23    1009.0  805.8         
19:53 18.09 ЮЗ  7
{10} 
16 км    ясно  +22.8  -8.3  12  +21  +23  комфорт  1008.0  805.0         

 

Местоположение метеостанции Ely Airport: широта 39.2950 долгота -114.8453 высота над уровнем моря 1907 м.

В архиве по умолчанию представлена погода в Или за последние 1-2 суток. Обновление информации о фактической погоде в базе происходит ежечасно! Архивные данные за месяц целиком и за предыдущие месяцы Вы можете получить, выбрав интересующий диапазон дат из раскрывающегося списка и нажав кнопку "Ввод!".

Внимание! Архив погоды МЕТАР в базе сайта хранится не более 60 дней. Нет смысла пытаться выбрать более раннюю дату.

Внимание! Время в таблицах - всемирное. Для получения местного времени необходимо прибавить поправку, которая в Или равна -8 ч.

Ветер - указаны скорость ветра в м/с и направление, откуда дует ветер: С - северный, СВ - северо-восточный, В - восточный, ЮВ - юго-восточный, Ю - южный, ЮЗ - юго-западный, З - западный, СЗ - северо-западный.
Видимость - горизонтальная дальность видимости в метрах или километрах. При видимости от 1 до 10 км при отсутствии осадков обычно наблюдается дымка, при ухудшении видимости до 1 км и менее - туман. В сухую погоду видимость может ухудшаться дымом, пылью или мглою.
Атмосферные явления - указаны явления, наблюдавшиеся в указанный момент времени.
Облачность - указаны через наклонную черту верхняя и нижняя облачность в баллах и высота нижней границы облаков в метрах. Внимание: облачность, как и прочие метеорологические величины в США измеряются автоматическими метеостанциями. Указанные значения в баллах носят условный характер и показывают процент времени, в течение которого, в среднем, лазерный луч высотомера отражался от облаков обратно.
T - Температура воздуха - температура, измеренная на высоте 2 м над землей.
Td - Температура точки росы - температура, при понижении до которой содержащийся в воздухе водяной пар достигнет насыщения.
f - Относительная влажность воздуха - влажноcть воздуха, измеренная на высоте 2 м над землей.
Te - Эффективная температура - температура, которую ощущает одетый по сезону человек в тени. Характеристика душности погоды. При расчете учитывается влияние влажности воздуха и скорости ветра на теплоощущения человека.
Tes - Эффективная температура на солнце - температура, которую ощущает человек, с поправкой на солнечный нагрев. Характеристика знойности погоды. Зависит от высоты солнца над горизонтом, облачности и скорости ветра. Ночью, в пасмурную погоду, а также при ветре 12 м/с и более поправка равна нулю.
P - Атмосферное давление - приведенное к уровню моря атмосферное давление.
Po - Атмосферное давление - измеренное на уровне метеостанции атмосферное давление.
Tmin - Минимальная температура - минимум температуры воздуха на высоте 2 м над землей.
Tmax - Максимальная температура - максимум температуры воздуха на высоте 2 м над землей.
R - Количество осадков - Количество выпавших осадков за 3 или 6 часов, мм.
SD - Снежный покров - Высота снежного покрова, см.